Weather History for Ogden, UT

Change the Weather History Date:

Thursday, October 11, 2012

  Actual Average Record
Temperature  
Mean Temperature 64 °F -  
Max Temperature 78 °F 68 °F 82 °F (1936)
Min Temperature 52 °F 40 °F 23 °F (1946)
Degree Days  
Heating Degree Days 2    
Growing Degree Days 14 (Base 50)    
Moisture  
Dew Point 36 °F    
Average Humidity 37    
Maximum Humidity 50    
Minimum Humidity 22    
Precipitation  
Precipitation 0.00 in - - ()
Sea Level Pressure  
Sea Level Pressure 29.84 in    
Wind  
Wind Speed 6 mph (SSE)    
Max Wind Speed 10 mph    
Max Gust Speed -    
Visibility 10 miles    
Events      
Averages and records for this station are not official NWS values.
T = Trace of Precipitation, MM = Missing Value Source: NWS Daily Summary

Daily Weather History Graph

Daily Weather History Graph

Search for Another Location

Airport:

Trip Planner

Search our weather history database for the weather conditions in past years. The results will help you decide how hot, cold, wet, or windy it might be!

Date:

Astronomy

Oct. 11, 2012 Rise Set
Actual Time 7:35 AM MDT 6:52 PM MDT
Civil Twilight 7:08 AM MDT 7:20 PM MDT
Nautical Twilight 6:36 AM MDT 7:52 PM MDT
Astronomical Twilight 6:04 AM MDT 8:24 PM MDT
Moon 3:16 AM MDT (10/11) 4:33 PM MDT (10/11)
Length of Visible Light 12h 12m
Length of Day
11h 16m
Waning Crescent, 18% of the Moon is Illuminated
Oct 11
Waning Crescent
Oct 15
New
Oct 21
First Quarter
Oct 29
Full
Nov 6
Last Quarter

Hourly Weather History & Observations

Time (MDT) Temp. Dew Point Humidity Pressure Visibility Wind Dir Wind Speed Gust Speed Precip Events Conditions
12:53 AM 62.1 °F 37.0 °F 39% 29.83 in 10.0 mi SSE 5.8 mph - N/A   Clear
1:53 AM 59.0 °F 33.1 °F 38% 29.83 in 10.0 mi SSE 8.1 mph - N/A   Mostly Cloudy
2:53 AM 59.0 °F 32.0 °F 36% 29.84 in 10.0 mi South 5.8 mph - N/A   Mostly Cloudy
3:53 AM 57.0 °F 30.9 °F 37% 29.84 in 10.0 mi SSE 5.8 mph - N/A   Overcast
4:53 AM 55.0 °F 32.0 °F 42% 29.85 in 10.0 mi South 10.4 mph - N/A   Partly Cloudy
5:53 AM 55.0 °F 33.1 °F 43% 29.85 in 10.0 mi South 9.2 mph - N/A   Clear
6:53 AM 54.0 °F 33.1 °F 45% 29.87 in 10.0 mi South 9.2 mph - N/A   Clear
7:53 AM 52.0 °F 34.0 °F 50% 29.89 in 10.0 mi South 6.9 mph - N/A   Clear
8:53 AM 54.0 °F 35.1 °F 49% 29.91 in 10.0 mi South 6.9 mph - N/A   Clear
9:53 AM 60.1 °F 36.0 °F 41% 29.91 in 10.0 mi South 5.8 mph - N/A   Clear
10:53 AM 66.0 °F 37.0 °F 34% 29.89 in 10.0 mi Calm Calm - N/A   Clear
11:53 AM 70.0 °F 37.9 °F 31% 29.87 in 10.0 mi Calm Calm - N/A   Clear
12:53 PM 72.0 °F 37.9 °F 29% 29.85 in 10.0 mi North 3.5 mph - N/A   Clear
1:53 PM 75.0 °F 36.0 °F 24% 29.81 in 10.0 mi ENE 3.5 mph - N/A   Clear
2:53 PM 75.9 °F 37.9 °F 25% 29.79 in 10.0 mi WNW 4.6 mph - N/A   Clear
5:53 PM 75.0 °F 34.0 °F 22% 29.76 in 10.0 mi North 5.8 mph - N/A   Clear
7:53 PM 66.9 °F 35.1 °F 31% 29.78 in 10.0 mi ENE 6.9 mph - N/A   Scattered Clouds
8:53 PM 66.0 °F 37.9 °F 36% 29.79 in 10.0 mi SSW 4.6 mph - N/A   Mostly Cloudy
9:53 PM 66.0 °F 44.1 °F 45% 29.81 in 10.0 mi SSE 8.1 mph - N/A   Clear
10:53 PM 64.0 °F 41.0 °F 43% 29.81 in 10.0 mi SSE 3.5 mph - N/A   Clear